Voltar ao catálogo

ARIANE 42L+3 R/B

AtivoGTO
NORAD 23671·ROCKET BODY·🇫🇷 France

Lançado Sep 24, 1995 de Guiana Space Centre

Loading…

TLE

EnvelhecendoSource: Space-Track

Época: Sep 14, 2026, 10:35 UTC

1 23671U 95049B   26257.44119442  .00000381  00000-0  12638-2 0  9991
2 23671   7.6697  26.2851 7210966 324.6044   4.2222  2.29733198254449

Acompanhe ARIANE 42L+3 R/B em tempo real com AllMySat

Download on the App Store